Location: Astronomy Club of Akron Observatory
(40.9700°N, 81.5606°W)
Time: 03:54:17
(UTC-04:00)

ISS - Pass Details

Date: 19 July 2018
Orbit: 402 x 408 km, 51.6° (Epoch: 19 July)

Event Time Altitude Azimuth Distance (km) Brightness Sun altitude
Rises 00:02:26 0° 259° (W) 2,315 0.2 -24.7°
Enters shadow 00:04:27 - 269° (W) 1,539 -0.7 -24.9°
Exits shadow 00:07:07 28° 316° (NW) 788 -1.8 -25.1°
Maximum altitude 00:07:36 30° 334° (NNW) 761 -1.9 -25.1°
Drops below altitude 10° 00:10:33 10° 38° (NE) 1,467 -0.7 -25.3°
Sets 00:12:48 0° 50° (NE) 2,331 0.3 -25.5°
